Location: Cincinnati Observatory Center
(39.1389°N, 84.4225°W)
Time: 22:10:54
(UTC-04:00)

Hubble Space Telescope - Visible Passes

Search period start: 26 June 2016 00:00
Search period end: 06 July 2016 00:00
Orbit: 539 x 543 km, 28.5° (Epoch: 26 June)

Date Brightness Start Highest point End Pass type
(mag) Time Alt. Az. Time Alt. Az. Time Alt. Az.
30 Jun 3.1 23:03:23 10° SSW 23:03:44 11° SSW 23:03:44 11° SSW visible
01 Jul 2.7 22:53:27 10° SW 22:54:58 16° SSW 22:54:58 16° SSW visible
02 Jul 2.4 22:43:35 10° SW 22:46:01 18° S 22:46:01 18° S visible
03 Jul 2.3 22:33:46 10° SW 22:36:40 19° S 22:36:56 18° S visible
04 Jul 2.4 22:23:59 10° SW 22:26:52 18° S 22:27:45 17° SSE visible
05 Jul 2.5 22:14:16 10° SW 22:17:04 18° S 22:18:30 15° SSE visible
